Location: Goettingen
(51.5300°N, 9.9433°E)
Time: 11:29:04
(UTC+02:00)

ISS - Pass Details

Date: 23 May 2019
Orbit: 407 x 410 km, 51.6° (Epoch: 21 May)

Event Time Altitude Azimuth Distance (km) Brightness Sun altitude
Rises 00:17:09 0° 276° (W) 2,336 0.3 -16.8°
Reaches altitude 10° 00:19:14 10° 276° (W) 1,474 -0.7 -16.9°
Maximum altitude 00:22:33 88° 189° (S) 414 -3.9 -17.0°
Enters shadow 00:24:32 22° 99° (E) 940 -2.2 -17.1°
